Location: Audinghen
(50.8518°N, 1.6129°E)
Time: 06:27:57
(UTC+00:00)

Cosmos 2266 Rocket - Pass Details

Date: 07 August 2020
Orbit: 934 x 1008 km, 82.9° (Epoch: 23 September)

Event Time Altitude Azimuth Distance (km) Brightness Sun altitude
Rises 02:28:57 0° 349° (N) 3,748 7.7 -15.3°
Reaches altitude 10° 02:31:30 10° 349° (N) 2,788 7.0 -15.0°
Maximum altitude 02:37:56 84° 263° (W) 1,006 4.0 -14.4°
Drops below altitude 10° 02:44:12 10° 176° (S) 2,726 5.9 -13.8°
Enters shadow 02:45:00 - 176° (S) 3,027 6.2 -13.7°
